Time,TemperatureF,DewpointF,PressureIn,WindDirection,WindDirectionDegrees,WindSpeedMPH,WindSpeedGustMPH,Humidity,HourlyPrecipIn,Conditions,Clouds,dailyrainin,SolarRadiationWatts/m^2,SoftwareType,DateUTC
2013-01-10 00:22:00,33.0,33.0,-100.00,South,183,0.0,2.0,100,0.00,,,0.75,0.000000,,2013-01-10 08:22:00,
2013-01-10 00:32:00,33.0,33.0,-100.00,South,183,0.0,2.0,100,0.00,,,0.75,0.000000,,2013-01-10 08:32:00,
2013-01-10 00:42:00,33.0,33.0,-100.00,South,183,0.0,2.0,100,0.00,,,0.75,0.000000,,2013-01-10 08:42:00,
2013-01-10 00:52:00,33.0,33.0,-100.00,South,183,0.0,2.0,100,0.00,,,0.75,0.000000,,2013-01-10 08:52:00,
2013-01-10 01:22:00,33.0,33.0,-100.00,South,180,1.0,2.0,100,0.00,,,0.74,0.000000,,2013-01-10 09:22:00,
2013-01-10 01:32:00,33.0,33.0,-100.00,South,180,1.0,2.0,100,0.00,,,0.74,0.000000,,2013-01-10 09:32:00,
2013-01-10 01:42:00,33.0,33.0,-100.00,South,180,1.0,2.0,100,0.00,,,0.74,0.000000,,2013-01-10 09:42:00,
2013-01-10 01:52:00,33.0,33.0,-100.00,South,180,1.0,2.0,100,0.00,,,0.74,0.000000,,2013-01-10 09:52:00,
2013-01-10 02:22:00,32.0,32.0,-100.00,SSW,192,1.0,2.0,100,0.00,,,0.74,0.000000,,2013-01-10 10:22:00,
2013-01-10 02:32:00,32.0,32.0,-100.00,SSW,192,1.0,2.0,100,0.00,,,0.74,0.000000,,2013-01-10 10:32:00,
2013-01-10 02:42:00,32.0,32.0,-100.00,SSW,192,1.0,2.0,100,0.00,,,0.74,0.000000,,2013-01-10 10:42:00,
2013-01-10 02:52:00,32.0,32.0,-100.00,SSW,192,1.0,2.0,100,0.00,,,0.74,0.000000,,2013-01-10 10:52:00,
2013-01-10 03:22:00,32.0,32.0,-100.00,South,190,1.0,2.0,100,0.00,,,0.74,0.000000,,2013-01-10 11:22:00,
2013-01-10 03:32:00,32.0,32.0,-100.00,South,190,1.0,2.0,100,0.00,,,0.74,0.000000,,2013-01-10 11:32:00,
2013-01-10 03:42:00,32.0,32.0,-100.00,South,190,1.0,2.0,100,0.00,,,0.74,0.000000,,2013-01-10 11:42:00,
2013-01-10 03:52:00,32.0,32.0,-100.00,South,190,1.0,2.0,100,0.00,,,0.74,0.000000,,2013-01-10 11:52:00,
2013-01-10 06:22:00,32.0,32.0,-100.00,South,180,1.0,2.0,100,-99.99,,,0.58,0.000000,,2013-01-10 14:22:00,
2013-01-10 06:32:00,32.0,32.0,-100.00,South,180,1.0,2.0,100,-99.99,,,0.58,0.000000,,2013-01-10 14:32:00,
2013-01-10 06:43:00,32.0,32.0,-100.00,South,180,1.0,2.0,100,-99.99,,,0.58,0.000000,,2013-01-10 14:43:00,
2013-01-10 06:52:00,32.0,32.0,-100.00,South,180,1.0,2.0,100,-99.99,,,0.58,0.000000,,2013-01-10 14:52:00,
2013-01-10 07:22:00,32.0,32.0,-100.00,South,188,1.0,3.0,100,0.00,,,0.45,0.000000,,2013-01-10 15:22:00,
2013-01-10 07:32:00,32.0,32.0,-100.00,South,188,1.0,3.0,100,0.00,,,0.45,0.000000,,2013-01-10 15:32:00,
2013-01-10 07:43:00,32.0,32.0,-100.00,South,188,1.0,3.0,100,0.00,,,0.45,0.000000,,2013-01-10 15:43:00,
2013-01-10 07:52:00,32.0,32.0,-100.00,South,188,1.0,3.0,100,0.00,,,0.45,0.000000,,2013-01-10 15:52:00,
2013-01-10 08:22:00,32.0,32.0,-100.00,SSW,198,1.0,5.0,100,0.00,,,0.35,0.000000,,2013-01-10 16:22:00,
2013-01-10 08:33:00,32.0,32.0,-100.00,SSW,198,1.0,5.0,100,0.00,,,0.35,0.000000,,2013-01-10 16:33:00,
2013-01-10 08:42:00,32.0,32.0,-100.00,SSW,198,1.0,5.0,100,0.00,,,0.35,0.000000,,2013-01-10 16:42:00,
2013-01-10 08:52:00,32.0,32.0,-100.00,SSW,198,1.0,5.0,100,0.00,,,0.35,0.000000,,2013-01-10 16:52:00,
2013-01-10 09:22:00,33.0,33.0,-100.00,SSW,195,1.0,3.0,100,0.00,,,0.29,1.000000,,2013-01-10 17:22:00,
2013-01-10 09:33:00,33.0,33.0,-100.00,SSW,195,1.0,3.0,100,0.00,,,0.29,1.000000,,2013-01-10 17:33:00,
2013-01-10 09:42:00,33.0,33.0,-100.00,SSW,195,1.0,3.0,100,0.00,,,0.29,1.000000,,2013-01-10 17:42:00,
2013-01-10 09:53:00,33.0,33.0,-100.00,SSW,195,1.0,3.0,100,0.00,,,0.29,1.000000,,2013-01-10 17:53:00,
2013-01-10 10:23:00,33.0,33.0,-100.00,SW,214,0.0,5.0,100,0.00,,,0.18,4.000000,,2013-01-10 18:23:00,
2013-01-10 10:33:00,33.0,33.0,-100.00,SW,214,0.0,5.0,100,0.00,,,0.18,4.000000,,2013-01-10 18:33:00,
2013-01-10 10:43:00,33.0,33.0,-100.00,SW,214,0.0,5.0,100,0.00,,,0.18,4.000000,,2013-01-10 18:43:00,
2013-01-10 10:52:00,33.0,33.0,-100.00,SW,214,0.0,5.0,100,0.00,,,0.18,4.000000,,2013-01-10 18:52:00,
2013-01-10 11:23:00,32.0,32.0,-100.00,SSW,192,2.0,4.0,100,0.01,,,0.14,12.000000,,2013-01-10 19:23:00,
2013-01-10 11:32:00,32.0,32.0,-100.00,SSW,192,2.0,4.0,100,0.01,,,0.14,12.000000,,2013-01-10 19:32:00,
2013-01-10 11:43:00,32.0,32.0,-100.00,SSW,192,2.0,4.0,100,0.01,,,0.14,12.000000,,2013-01-10 19:43:00,
2013-01-10 11:52:00,32.0,32.0,-100.00,SSW,192,2.0,4.0,100,0.01,,,0.14,12.000000,,2013-01-10 19:52:00,
2013-01-10 12:23:00,34.0,34.0,-100.00,NNW,340,2.0,6.0,100,0.00,,,0.11,32.000000,,2013-01-10 20:23:00,
2013-01-10 12:32:00,34.0,34.0,-100.00,NNW,340,2.0,6.0,100,0.00,,,0.11,32.000000,,2013-01-10 20:32:00,
2013-01-10 12:42:00,34.0,34.0,-100.00,NNW,340,2.0,6.0,100,0.00,,,0.11,32.000000,,2013-01-10 20:42:00,
2013-01-10 12:53:00,34.0,34.0,-100.00,NNW,340,2.0,6.0,100,0.00,,,0.11,32.000000,,2013-01-10 20:53:00,
2013-01-10 13:23:00,35.0,34.0,-100.00,NNW,346,6.0,14.0,98,0.00,,,0.06,136.000000,,2013-01-10 21:23:00,
2013-01-10 13:33:00,35.0,34.0,-100.00,NNW,346,6.0,14.0,98,0.00,,,0.06,136.000000,,2013-01-10 21:33:00,
2013-01-10 13:42:00,35.0,34.0,-100.00,NNW,346,6.0,14.0,98,0.00,,,0.06,136.000000,,2013-01-10 21:42:00,
2013-01-10 13:52:00,35.0,34.0,-100.00,NNW,346,6.0,14.0,98,0.00,,,0.06,136.000000,,2013-01-10 21:52:00,
2013-01-10 14:25:00,35.0,34.0,-100.00,North,0,3.0,13.0,98,0.00,,,0.06,205.000000,,2013-01-10 22:25:00,
2013-01-10 14:32:00,35.0,34.0,-100.00,North,0,3.0,13.0,98,0.00,,,0.06,205.000000,,2013-01-10 22:32:00,
2013-01-10 14:43:00,35.0,34.0,-100.00,North,0,3.0,13.0,98,0.00,,,0.06,205.000000,,2013-01-10 22:43:00,
2013-01-10 15:22:00,36.0,35.0,-100.00,North,353,3.0,14.0,98,0.00,,,0.05,135.000000,,2013-01-10 23:22:00,
2013-01-10 15:33:00,36.0,35.0,-100.00,North,353,3.0,14.0,98,0.00,,,0.05,135.000000,,2013-01-10 23:33:00,
2013-01-10 15:42:00,36.0,35.0,-100.00,North,353,3.0,14.0,98,0.00,,,0.05,135.000000,,2013-01-10 23:42:00,
2013-01-10 15:52:00,36.0,35.0,-100.00,North,353,3.0,14.0,98,0.00,,,0.05,135.000000,,2013-01-10 23:52:00,
2013-01-10 16:23:00,34.0,34.0,-100.00,North,2,5.0,13.0,100,0.01,,,0.06,72.000000,,2013-01-11 00:23:00,
2013-01-10 16:33:00,34.0,34.0,-100.00,North,2,5.0,13.0,100,0.01,,,0.06,72.000000,,2013-01-11 00:33:00,
2013-01-10 16:42:00,34.0,34.0,-100.00,North,2,5.0,13.0,100,0.01,,,0.06,72.000000,,2013-01-11 00:42:00,
2013-01-10 16:52:00,34.0,34.0,-100.00,North,2,5.0,13.0,100,0.01,,,0.06,72.000000,,2013-01-11 00:52:00,
2013-01-10 17:22:00,34.0,34.0,-100.00,North,6,3.0,13.0,100,0.02,,,0.07,24.000000,,2013-01-11 01:22:00,
2013-01-10 17:33:00,34.0,34.0,-100.00,North,6,3.0,13.0,100,0.02,,,0.07,24.000000,,2013-01-11 01:33:00,
2013-01-10 17:42:00,34.0,34.0,-100.00,North,6,3.0,13.0,100,0.02,,,0.07,24.000000,,2013-01-11 01:42:00,
2013-01-10 17:52:00,34.0,34.0,-100.00,North,6,3.0,13.0,100,0.02,,,0.07,24.000000,,2013-01-11 01:52:00,
2013-01-10 18:23:00,33.0,33.0,-100.00,North,0,5.0,12.0,100,0.05,,,0.12,2.000000,,2013-01-11 02:23:00,
2013-01-10 18:33:00,33.0,33.0,-100.00,North,0,5.0,12.0,100,0.05,,,0.12,2.000000,,2013-01-11 02:33:00,
2013-01-10 18:43:00,33.0,33.0,-100.00,North,0,5.0,12.0,100,0.05,,,0.12,2.000000,,2013-01-11 02:43:00,
2013-01-10 18:52:00,33.0,33.0,-100.00,North,0,5.0,12.0,100,0.05,,,0.12,2.000000,,2013-01-11 02:52:00,
2013-01-10 19:22:00,32.0,32.0,-100.00,North,1,5.0,17.0,100,0.04,,,0.15,0.000000,,2013-01-11 03:22:00,
2013-01-10 19:33:00,32.0,32.0,-100.00,North,1,5.0,17.0,100,0.04,,,0.15,0.000000,,2013-01-11 03:33:00,
2013-01-10 19:42:00,32.0,32.0,-100.00,North,1,5.0,17.0,100,0.04,,,0.15,0.000000,,2013-01-11 03:42:00,
2013-01-10 19:52:00,32.0,32.0,-100.00,North,1,5.0,17.0,100,0.04,,,0.15,0.000000,,2013-01-11 03:52:00,
2013-01-10 20:22:00,32.0,32.0,-100.00,NNW,339,3.0,13.0,100,0.01,,,0.16,0.000000,,2013-01-11 04:22:00,
2013-01-10 20:32:00,32.0,32.0,-100.00,NNW,339,3.0,13.0,100,0.01,,,0.16,0.000000,,2013-01-11 04:32:00,
2013-01-10 20:42:00,32.0,32.0,-100.00,NNW,339,3.0,13.0,100,0.01,,,0.16,0.000000,,2013-01-11 04:42:00,
2013-01-10 20:52:00,32.0,32.0,-100.00,NNW,339,3.0,13.0,100,0.01,,,0.16,0.000000,,2013-01-11 04:52:00,
2013-01-10 21:22:00,32.0,32.0,-100.00,North,354,5.0,17.0,100,0.02,,,0.18,0.000000,,2013-01-11 05:22:00,
2013-01-10 21:33:00,32.0,32.0,-100.00,North,354,5.0,17.0,100,0.02,,,0.18,0.000000,,2013-01-11 05:33:00,
2013-01-10 21:42:00,32.0,32.0,-100.00,North,354,5.0,17.0,100,0.02,,,0.18,0.000000,,2013-01-11 05:42:00,
2013-01-10 21:52:00,32.0,32.0,-100.00,North,354,5.0,17.0,100,0.02,,,0.18,0.000000,,2013-01-11 05:52:00,
2013-01-10 22:22:00,34.0,34.0,-100.00,NNW,345,4.0,13.0,100,0.02,,,0.18,0.000000,,2013-01-11 06:22:00,
2013-01-10 22:32:00,34.0,34.0,-100.00,NNW,345,4.0,13.0,100,0.02,,,0.18,0.000000,,2013-01-11 06:32:00,
2013-01-10 22:42:00,34.0,34.0,-100.00,NNW,345,4.0,13.0,100,0.02,,,0.18,0.000000,,2013-01-11 06:42:00,
2013-01-10 22:52:00,34.0,34.0,-100.00,NNW,345,4.0,13.0,100,0.02,,,0.18,0.000000,,2013-01-11 06:52:00,
2013-01-10 23:22:00,34.0,34.0,-100.00,North,357,2.0,12.0,100,0.01,,,0.19,0.000000,,2013-01-11 07:22:00,
2013-01-10 23:32:00,34.0,34.0,-100.00,North,357,2.0,12.0,100,0.01,,,0.19,0.000000,,2013-01-11 07:32:00,
2013-01-10 23:42:00,34.0,34.0,-100.00,North,357,2.0,12.0,100,0.01,,,0.19,0.000000,,2013-01-11 07:42:00,
2013-01-10 23:52:00,34.0,34.0,-100.00,North,357,2.0,12.0,100,0.01,,,0.19,0.000000,,2013-01-11 07:52:00,